Shelbyville, IN

11:07 AM EST on January 17, 2017 (GMT -0500)
Shelbyville Municipal

Weather History for KGEZ - September, 2013

Change the Weather History Date:

Friday, September 6, 2013

  Actual Average Record
Temperature  
Mean Temperature 70 °F 69 °F  
Max Temperature 84 °F 81 °F 93 °F (2015)
Min Temperature 56 °F 57 °F 50 °F (2000)
Degree Days  
Heating Degree Days 0 1  
Month to date heating degree days 0 3  
Since 1 July heating degree days 8 9  
Cooling Degree Days 5 5  
Month to date cooling degree days 39 32  
Year to date cooling degree days 1024 838  
Growing Degree Days 20 (Base 50)    
Moisture  
Dew Point 55 °F    
Average Humidity 62    
Maximum Humidity 84    
Minimum Humidity 39    
Precipitation  
Precipitation 0.00 in 0.11 in 0.01 in (2001)
Month to date precipitation 0.03 0.60  
Year to date precipitation 21.44 30.88  
Sea Level Pressure  
Sea Level Pressure 30.17 in    
Wind  
Wind Speed 4 mph (ESE)    
Max Wind Speed 10 mph    
Max Gust Speed 13 mph    
Visibility 10 miles    
Events      
T = Trace of Precipitation, MM = Missing Value Source: NWS Daily Summary

Daily Weather History Graph

Daily Weather History Graph

Search for Another Location

Airport or City:

Trip Planner

Search our weather history database for the weather conditions in past years. The results will help you decide how hot, cold, wet, or windy it might be!

Date:

Astronomy

Sep. 06, 2013 Rise Set
Actual Time 7:16 AM EDT 8:05 PM EDT
Civil Twilight 6:48 AM EDT 8:33 PM EDT
Nautical Twilight 6:16 AM EDT 9:05 PM EDT
Astronomical Twilight 5:42 AM EDT 9:38 PM EDT
Moon 8:27 AM EDT (9/6) 8:30 PM EDT (9/6)
Length of Visible Light 13h 44m
Length of Day
12h 49m
New Moon, 1% of the Moon is Illuminated
Sep 6
New Moon
Sep 12
First Quarter
Sep 19
Full
Sep 26
Last Quarter
Oct 4
New

Hourly Weather History & Observations

Time (EDT) Temp. Heat Index Dew Point Humidity Pressure Visibility Wind Dir Wind Speed Gust Speed Precip Events Conditions
12:53 AM 63.0 °F - 57.0 °F 81% 30.19 in 10.0 mi ENE 5.8 mph - N/A   Clear
1:53 AM 62.1 °F - 54.0 °F 75% 30.20 in 10.0 mi East 6.9 mph - N/A   Clear
2:53 AM 60.1 °F - 53.1 °F 78% 30.21 in 10.0 mi East 5.8 mph - N/A   Clear
3:53 AM 59.0 °F - 52.0 °F 78% 30.20 in 10.0 mi East 5.8 mph - N/A   Clear
4:53 AM 57.9 °F - 51.1 °F 78% 30.20 in 10.0 mi East 4.6 mph - N/A   Clear
5:53 AM 57.9 °F - 51.1 °F 78% 30.21 in 10.0 mi East 5.8 mph - N/A   Scattered Clouds
6:53 AM 57.0 °F - 52.0 °F 83% 30.22 in 10.0 mi Calm Calm - N/A   Partly Cloudy
7:53 AM 59.0 °F - 52.0 °F 78% 30.22 in 10.0 mi East 3.5 mph - N/A   Scattered Clouds
8:53 AM 63.0 °F - 52.0 °F 67% 30.22 in 10.0 mi East 8.1 mph - N/A   Clear
9:53 AM 66.9 °F - 53.1 °F 61% 30.23 in 10.0 mi ESE 6.9 mph - N/A   Clear
10:53 AM 72.0 °F - 52.0 °F 49% 30.23 in 10.0 mi SE 3.5 mph - N/A   Clear
11:53 AM 75.0 °F - 52.0 °F 44% 30.22 in 10.0 mi ESE 3.5 mph - N/A   Clear
12:53 PM 77.0 °F - 53.1 °F 43% 30.21 in 10.0 mi Variable 3.5 mph - N/A   Clear
1:53 PM 80.1 °F 80.0 °F 54.0 °F 40% 30.18 in 10.0 mi Calm Calm - N/A   Clear
2:53 PM 82.0 °F 81.6 °F 55.9 °F 41% 30.16 in 10.0 mi East 3.5 mph - N/A   Clear
3:53 PM 82.9 °F 82.1 °F 55.9 °F 39% 30.14 in 10.0 mi Calm Calm - N/A   Clear
4:53 PM 82.9 °F 82.1 °F 55.9 °F 39% 30.11 in 10.0 mi Calm Calm - N/A   Clear
5:53 PM 82.9 °F 82.4 °F 57.0 °F 41% 30.11 in 10.0 mi Calm Calm - N/A   Clear
6:53 PM 80.1 °F 81.2 °F 62.1 °F 54% 30.10 in 10.0 mi Calm Calm - N/A   Clear
7:53 PM 73.9 °F - 61.0 °F 64% 30.09 in 10.0 mi SE 3.5 mph - N/A   Clear
8:53 PM 68.0 °F - 60.1 °F 76% 30.09 in 10.0 mi ESE 5.8 mph - N/A   Clear
9:53 PM 66.0 °F - 57.9 °F 75% 30.11 in 10.0 mi SE 4.6 mph - N/A   Clear
10:53 PM 64.0 °F - 57.9 °F 80% 30.10 in 10.0 mi SE 4.6 mph - N/A   Clear
11:53 PM 62.1 °F - 57.0 °F 84% 30.09 in 10.0 mi Calm Calm - N/A   Clear